Regional Weather Roundup
Issued by NWS

Home | Current Version | Previous Version | Text Only | Print | Product List | Glossary Off
Versions: 1 2 3 4 5 6 7 8 9 10 11 12 13 14 15 16 17 18 19 20 21 22 23 24 25 26 27 28 29 30 31 32 33 34 35 36 37 38 39 40 41 42 43 44 45 46 47 48 49 50

000
ASUS43 KMKX 271200
RWRWI

WISCONSIN REGIONAL WEATHER ROUNDUP
NATIONAL WEATHER SERVICE MILWAUKEE/SULLIVAN WI
700 AM CDT MON APR 27 2015

NOTE: "FAIR" INDICATES FEW OR NO CLOUDS BELOW 12,000 FEET WITH NO
SIGNIFICANT WEATHER AND/OR OBSTRUCTIONS TO VISIBILITY.

WIZ001-002-006>008-014>016-023>028-271300-
NORTHWEST WISCONSIN

CITY           SKY/WX    TMP DP  RH WIND       PRES   REMARKS
SUPERIOR ARPT  CLEAR     28  25  89 CALM      30.23S
ASHLAND        CLEAR     30  28  92 CALM      30.22R
6HR MIN TEMP:  25; 6HR MAX TEMP:  30;

HAYWARD        CLEAR     29  26  89 CALM      30.21S
6HR MIN TEMP:  27; 6HR MAX TEMP:  33;

SIREN          CLEAR     28  25  89 CALM      30.22R
CUMBERLAND     CLEAR     32  28  86 CALM      30.20S
RICE LAKE      CLEAR     31  28  89 N3        30.22S
CHETEK         CLEAR     32  28  84 CALM      30.21R
LADYSMITH      CLEAR     35  27  74 CALM      30.20F
6HR MIN TEMP:  33; 6HR MAX TEMP:  38;

EAU CLAIRE     NOT AVBL
MENOMONIE      CLEAR     35  28  75 CALM      30.20S
6HR MIN TEMP:  34; 6HR MAX TEMP:  44;

NEW RICHMOND   CLEAR     33  29  84 NE3       30.20S
OSCEOLA        CLEAR     31  26  82 CALM      30.24S
$$

WIZ003>005-009-010-017-018-271300-
NORTH CENTRAL WISCONSIN

CITY           SKY/WX    TMP DP  RH WIND       PRES   REMARKS
MANITOWISH WTR SUNNY     31  28  86 NW3       30.18R
ARBOR VITAE    SUNNY     32  28  84 CALM      30.16S
WOODRUFF       SUNNY     32  28  84 CALM      30.16S
RHINELANDER    SUNNY     37  27  67 VRB6      30.17R WCI  32
6HR MIN TEMP:  32; 6HR MAX TEMP:  37;

EAGLE RIVER    SUNNY     32  27  83 N7        30.15S WCI  25
LAND O LAKES   SUNNY     34  28  79 NW5       30.17R WCI  30
PHILLIPS       CLEAR     30  26  87 CALM      30.18S
6HR MIN TEMP:  27; 6HR MAX TEMP:  34;

TOMAHAWK       SUNNY     31  26  81 CALM      30.18R
MEDFORD        CLEAR     32  26  78 N5        30.17S WCI  28
MERRILL        SUNNY     33  28  80 CALM      30.17S
$$

WIZ029-030-035-036-043>047-271300-
CENTRAL WISCONSIN

CITY           SKY/WX    TMP DP  RH WIND       PRES   REMARKS
WAUSAU         SUNNY     38  29  70 N7        30.16R WCI  33
6HR MIN TEMP:  36; 6HR MAX TEMP:  43;

MOSINEE        NOT AVBL
MARSHFIELD     CLEAR     38  30  73 N9        30.16S WCI  31
6HR MIN TEMP:  33; 6HR MAX TEMP:  42;

STEVENS POINT  SUNNY     28  25  87 CALM      30.16R
WAUPACA        SUNNY     39  31  73 NW5       30.14S
6HR MIN TEMP:  34; 6HR MAX TEMP:  39;

WAUTOMA        NOT AVBL
WISC RAPIDS    SUNNY     39  30  70 NE5       30.17R
6HR MIN TEMP:  32; 6HR MAX TEMP:  42;

CAMP DOUGLAS   NOT AVBL
$$

WIZ011>013-019>022-031-037>040-048>050-271300-
NORTHEAST WISCONSIN

CITY           SKY/WX    TMP DP  RH WIND       PRES   REMARKS
ANTIGO         SUNNY     33  28  83 NW3       30.15R
SHAWANO        SUNNY     36  30  78 CALM      30.14R
OCONTO         SUNNY     38  29  71 NW5       30.11S WCI  34
STURGEON BAY   SUNNY     39  28  65 N8        30.13R WCI  34
6HR MIN TEMP:  37; 6HR MAX TEMP:  43;

GREEN BAY      SUNNY     41  31  67 NW7       30.12R
6HR MIN TEMP:  37; 6HR MAX TEMP:  42;

MANITOWOC      NOT AVBL
APPLETON       SUNNY     39  28  65 N9        30.12S WCI  33
CLINTONVILLE   SUNNY     37  30  75 NW5       30.13S WCI  34
OSHKOSH        SUNNY     41  30  65 N8        30.11S
6HR MIN TEMP:  36; 6HR MAX TEMP:  42;

$$

WIZ032>034-041-042-053>061-271300-
SOUTHWEST WISCONSIN

CITY           SKY/WX    TMP DP  RH WIND       PRES   REMARKS
LA CROSSE      CLEAR     40  32  73 N6        30.17R
6HR MIN TEMP:  36; 6HR MAX TEMP:  47;

SPARTA         CLEAR     29  26  89 CALM      30.17R
VIROQUA        CLEAR     37  28  72 N3        30.14R
BOSCOBEL       CLEAR     33  30  88 CALM      30.17R
6HR MIN TEMP:  30; 6HR MAX TEMP:  44;

PRAIRIE DU CHI CLEAR     33  29  85 CALM      30.16R
PLATTEVILLE    CLEAR     34  29  82 CALM      30.13R
$$

WIZ056-057-062-063-064-067-068-271300-
SOUTH CENTRAL WISCONSIN

CITY           SKY/WX    TMP DP  RH WIND       PRES   REMARKS
REEDSBURG      CLEAR     32  30  91 CALM      30.14R
BARABOO/DELLS  SUNNY     34  29  80 NW3       30.13S
LONE ROCK      NOT AVBL
MINERAL POINT  CLEAR     36  30  80 CALM      30.13R
MADISON        SUNNY     37  30  75 N5        30.12R WCI  33
6HR MIN TEMP:  31; 6HR MAX TEMP:  40;

MIDDLETON      SUNNY     34  30  84 CALM      30.12R
WATERTOWN      SUNNY     36  33  91 NW3       30.10R
MONROE         SUNNY     39  30  70 NW5       30.11R
JANESVILLE     SUNNY     36  30  80 NW6       30.10R WCI  31
$$

WIZ051-052-058>065-066-070>072-271300-
SOUTHEAST WISCONSIN

CITY           SKY/WX    TMP DP  RH WIND       PRES   REMARKS
MILWAUKEE      SUNNY     42  30  62 N9        30.08S
6HR MIN TEMP:  39; 6HR MAX TEMP:  42;

WAUKESHA       SUNNY     37  28  70 N5        30.10R WCI  34
MILWAUKEE/TIMM SUNNY     39  28  65 N7        30.09S WCI  34
RACINE         SUNNY     43  31  62 N15G23    30.09R
6HR MIN TEMP:  37; 6HR MAX TEMP:  43;

BURLINGTON     SUNNY     35  29  78 N6        30.08R WCI  30
KENOSHA        FAIR      40  31  70 N7        30.07R
6HR MIN TEMP:  36; 6HR MAX TEMP:  40;

FOND DU LAC    SUNNY     40  31  70 NW9       30.11S WCI  34
6HR MIN TEMP:  35; 6HR MAX TEMP:  40;

SHEBOYGAN      SUNNY     40  31  70 N9        30.10R WCI  34
6HR MIN TEMP:  37; 6HR MAX TEMP:  42;

WEST BEND      SUNNY     37  30  75 NW7       30.09S WCI  32
JUNEAU         SUNNY     35  30  83 N5        30.11S WCI  31
$$

LSZ147-162-271300-
LAKE SUPERIOR

STATION/POSITION TIME  TEMP    WIND        PRES    WAVE
                       AIR SEA DIR/SP/G            HT/PER
                 (UTC) (F)     (DEG/KT/KT) (MB)    (FT/S)
W MID LAKE BUOY  1050   37 35  330/  6/  6 1023.9R   0
DEVILS ISLAND    1100   36     250/  9/  9 1023.9R
PORT WING        1140   30     150/  2/  4 1023.7R
SAXON HARBOR     1100   30      CALM  /  5 1022.7
$$

LMZ867-665-643>646-271300-
LAKE MICHIGAN

STATION/POSITION TIME  TEMP    WIND        PRES    WAVE
                       AIR SEA DIR/SP/G            HT/PER
                 (UTC) (F)     (DEG/KT/KT) (MB)    (FT/S)
CHAMBERS ISLAND  1100   38     310/  8/ 11 1019.3S
NORTHPORT PIER   1100   39     310/  9/ 10 1019.0R
SISTER BAY       1117   38      10/  9/ 11   N/A
KEWAUNEE LAKESHO 1100   40     340/  8/ 10 1018.1R
SHEBOYGAN LAKESH 1100   41     320/ 10/ 12 1019.6R
PORT WASHINGTON  1100   41     320/  6/  9 1019.3S
MILWAUKEE LAKESH 1100   43     340/ 12/ 15   N/A
KENOSHA   LAKESH 1100   43     350/ 13/ 16 1017.6S
$$

TC  - TEMPERATURE IN CELSIUS
VSB - VISIBILITY IN STATUTE MILES
WCI - WIND CHILL INDEX
HX  - HEAT INDEX




USA.gov is the U.S. government's official web portal to all federal, state and local government web resources and services.